Regional Weather Roundup
Issued by NWS

Home | Current Version | Previous Version | Graphics & Text | Print | Product List | Glossary On
Versions: 1 2 3 4 5 6 7 8 9 10 11 12 13 14 15 16 17 18 19 20 21 22 23 24 25 26 27 28 29 30 31 32 33 34 35 36 37 38 39 40 41 42 43 44 45 46 47 48 49 50
000
ASUS43 KMPX 171210
RWRMN
WEATHER ROUNDUP FOR MINNESOTA
NATIONAL WEATHER SERVICE TWIN CITIES/CHANHASSEN MN
700 AM CDT TUE OCT 17 2017


NOTE: "FAIR" INDICATES FEW OR NO CLOUDS BELOW 12,000 FEET WITH NO
SIGNIFICANT WEATHER AND/OR OBSTRUCTIONS TO VISIBILITY. N/A MEANS
CURRENT SKY AND/OR WEATHER CONDITIONS ARE NOT AVAILABLE.

MNZ060>063-068>070-171300-
   Twin Cities Metro

CITY           SKY/WX    TMP DP  RH WIND       PRES   REMARKS
TWIN CITIES    CLOUDY    49  41  74 SW3       30.01R
6HR MIN TEMP:  48; 6HR MAX TEMP:  56;

ST PAUL        CLOUDY    41  40  96 CALM      30.03R
CRYSTAL        CLEAR     40  36  86 CALM      30.00R
BLAINE         CLEAR     46  41  81 CALM      30.00R
LAKEVILLE      CLOUDY    41  39  93 CALM      30.01S
EDEN PRAIRIE   PTCLDY    46  40  79 W5        30.00R
6HR MIN TEMP:  45; 6HR MAX TEMP:  53;

SOUTH ST PAUL  CLOUDY    41  41  99 CALM      30.01R
LAKE ELMO      FAIR      39  37  93 CALM      30.02R
$$
MNZ001>005-007-008-013>017-022>024-027-028-171300-
   Northwest Minnesota

CITY           SKY/WX    TMP DP  RH WIND       PRES   REMARKS
BEMIDJI        CLOUDY    34  32  92 CALM      29.94S
HALLOCK        CLOUDY    36  30  80 SE9       29.86F
ROSEAU           N/A     37  34  87 S9        29.87S
WARROAD        CLOUDY    39  36  87 S5        29.88S
THIEF RVR FALL CLOUDY    39  33  79 S7        29.92S
CROOKSTON      CLEAR     36  32  87 S9        29.92S
FOSSTON        CLOUDY    34  28  80 S5        29.94R WCI  30
DETROIT LAKES  CLEAR     41  41 100 SE3       29.96S
MOORHEAD       CLEAR     37  34  87 S6        29.96R
PARK RAPIDS    CLEAR     36  33  89 CALM      29.95S
MAHNOMEN       FAIR      39  34  81 S6        29.95R
$$
MNZ006-009>011-018-025>026-171300-
   North Central Minnesota

CITY           SKY/WX    TMP DP  RH WIND       PRES   REMARKS
BAUDETTE       PTCLDY    38  34  85 S3        29.89S
FLAG ISLAND    CLEAR     43  39  87 S6        29.87R
INTL FALLS     CLOUDY    30  28  92 CALM      29.89F
6HR MIN TEMP:  30; 6HR MAX TEMP:  48;

WASKISH        CLOUDY    34  34 100 CALM      29.91F
BIG FORK       CLOUDY    32  30  93 CALM      29.94R
LONGVILLE      CLOUDY    32  32 100 CALM      29.96S
GRAND RAPIDS   PTCLDY    37  35  92 S6        29.97S
CRANE LAKE     PTCLDY    28  28 100 CALM      29.93F
ORR            PTCLDY    36  34  93 CALM      29.90S
COOK           PTCLDY    34  30  86 CALM      29.93S
WALKER         FAIR      40  36  84 CALM      29.95S
$$
MNZ012-019>021-037-171300-
   Northeast Minnesota

CITY           SKY/WX    TMP DP  RH WIND       PRES   REMARKS
DULUTH         CLOUDY    43  37  79 NW5       29.95S
6HR MIN TEMP:  43; 6HR MAX TEMP:  48;

ELY            CLEAR     34  32  93 CALM      29.93R
HIBBING        CLOUDY    32  30  92 CALM      29.95R
EVELETH        CLOUDY    32  32 100 CALM      29.96R
DULUTH HARBOR  CLOUDY    46  41  81 SW9       29.96S
TWO HARBORS    CLOUDY    50  39  66 W6        29.92S
GRAND MARAIS     N/A     52  39  61 NW8G18    29.89R
G MARAIS ARPRT CLEAR     43  34  70 W5        29.91F
$$
MNZ029>031-032-039>041-046>048-054>057-064-171300-
   West Central Minnesota

CITY           SKY/WX    TMP DP  RH WIND       PRES   REMARKS
FERGUS FALLS   CLOUDY    37  37 100 SE5       29.99S
WHEATON        CLOUDY    34  32  93 SE3       29.99F
MORRIS         CLOUDY    36  36 100 CALM      29.98S
ALEXANDRIA     CLOUDY    39  37  92 CALM      29.99F
ELBOW LAKE     FAIR      38  37  96 SE5       29.99S
WADENA         CLOUDY    36  36 100 CALM      29.97R
GLENWOOD       CLOUDY    45  41  87 NW3       29.99S
APPLETON       CLEAR     37  36  93 SW3       29.99S
BENSON         CLOUDY    36  34  93 CALM      30.01S FOG
ORTONVILLE     CLEAR     39  37  93 CALM      29.98F
MADISON        CLEAR     39  36  87 CALM      29.99S
WILLMAR        FAIR      37  37 100 CALM      30.01S
$$
MNZ033>034-036-042>043-049>051-058-059-171300-
   Central Minnesota

CITY           SKY/WX    TMP DP  RH WIND       PRES   REMARKS
ST CLOUD       CLOUDY    35  34  96 CALM      29.99S
6HR MIN TEMP:  34; 6HR MAX TEMP:  43;

SAUK CENTRE    FAIR      37  36  94 CALM      29.99S
PAYNESVILLE    CLOUDY    38  38 100 CALM      30.01R
AITKIN         CLEAR     32  30  93 CALM      29.95S
PINE RIVER     CLEAR     30  28  93 CALM      30.00R
BRAINERD       CLEAR     34  33  96 CALM      29.98R
STAPLES        CLOUDY    34  34 100 CALM      29.98R
LONG PRAIRIE   FAIR      36  34  93 CALM      29.99F
LITTLE FALLS     N/A     32  30  93 CALM      29.99S FOG
LITCHFIELD     CLEAR     41  41 100 CALM      30.00S
BUFFALO        CLOUDY    38  35  89 CALM      30.01S
MAPLE LAKE     CLEAR     38  38  99 CALM      30.01R
HUTCHINSON     CLOUDY    36  35  99 CALM      30.01S
$$
MNZ037-044-045-052-053-171300-
   East Central Minnesota

CITY           SKY/WX    TMP DP  RH WIND       PRES   REMARKS
PRINCETON      CLOUDY    36  34  93 CALM      30.00R FOG
MORA           CLOUDY    34  32  93 CALM      30.00R
CAMBRIDGE      CLOUDY    39  39 100 CALM      30.00R
RUSH CITY      CLOUDY    35  34  96 CALM      30.00R
MOOSE LAKE     CLOUDY    32  32 100 CALM      29.96S
HINCKLEY       FAIR      32  32 100 CALM      29.99R
CLOQUET        PTCLDY    39  34  81 W5        29.96S
MCGREGOR       CLOUDY    36  34  93 CALM      29.97S
$$
MNZ071>073-080-081-089-090-097-098-171300-
   Southwest Minnesota

CITY           SKY/WX    TMP DP  RH WIND       PRES   REMARKS
MONTEVIDEO     CLEAR     39  34  81 CALM      30.00F
GRANITE FALLS  CLEAR     39  37  92 N3        30.02R
CANBY          CLEAR     47  38  70 SW3       30.01S
MARSHALL       CLEAR     47  39  74 SW7       30.01R
REDWOOD FALLS  CLOUDY    42  37  82 SW3       30.01R
OLIVIA         CLOUDY    39  36  87 CALM      30.00R
PIPESTONE      CLEAR     41  36  81 SE5       30.03R
WORTHINGTON    CLEAR     45  38  76 SW7       30.04S
JACKSON        CLEAR     46  37  71 SW5       30.03S
TRACY          CLEAR     48  40  75 SW8       30.01S
SLAYTON        CLEAR     46  39  76 SW7       30.03S
$$
MNZ065>067-074>077-082>085-091>093-171300-
   South Central Minnesota

CITY           SKY/WX    TMP DP  RH WIND       PRES   REMARKS
MANKATO        CLEAR     44  39  82 S5        30.03R
NEW ULM          N/A     43  37  81 SW5       30.01R
ST JAMES       CLEAR     45  39  81 S5        30.03R
GLENCOE        CLOUDY    40  40  99 CALM      30.00S
FARIBAULT      CLEAR     45  39  81 CALM      30.03R
OWATONNA       CLEAR     46  39  76 S3        30.03R
WASECA         CLEAR     41  37  87 S5        30.04S
ALBERT LEA     CLEAR     50  43  76 SW8       30.04F
$$
MNZ078>079-086>088-094>096-171300-
   Southeast Minnesota

CITY           SKY/WX    TMP DP  RH WIND       PRES   REMARKS
ROCHESTER      CLEAR     46  40  79 SW9       30.04S
6HR MIN TEMP:  46; 6HR MAX TEMP:  54;

RED WING       CLEAR     39  37  93 CALM      30.01R
STANTON        CLOUDY    46  40  78 S6        30.01R
DODGE CENTER   CLEAR     45  39  81 SW7       30.03S
WINONA         CLEAR     48  39  71 SW3       30.04S
AUSTIN         CLEAR     39  36  87 CALM      30.05S
PRESTON        CLEAR     46  39  74 SW8       30.05S
$$
ABBREVIATIONS USED IN REMARKS
   TC - TEMPERATURES IN CELSIUS
  WCI - WIND CHILL INDEX
   HX - HEAT INDEX
  VSB - VISIBILITY
$$



USA.gov is the U.S. government's official web portal to all federal, state and local government web resources and services.